Regional Weather Roundup
Issued by NWS Little Rock, AR

Home | Current Version | Previous Version | Graphics & Text | Print | Product List | Glossary On
Versions: 1 2 3 4 5 6 7 8 9 10 11 12 13 14 15 16 17 18 19 20 21 22 23 24 25 26 27 28 29 30 31 32
000
ASUS44 KLZK 190905
RWRLZK

WEATHER ROUNDUP FOR ARKANSAS
NATIONAL WEATHER SERVICE LITTLE ROCK AR
300 AM CST SUN NOV 19 2017

NOTE: "FAIR" INDICATES FEW OR NO CLOUDS BELOW 12,000 FEET WITH NO
SIGNIFICANT WEATHER AND/OR OBSTRUCTIONS TO VISIBILITY.

ARZ001-003-010-029-191000-
NORTHWEST ARKANSAS

CITY           SKY/WX    TMP DP  RH WIND       PRES   REMARKS
FAYETTEVILLE   CLEAR     31  31 100 CALM      30.23R
FORT SMITH     CLEAR     37  33  85 W8        30.25S
HARRISON       CLEAR     36  28  73 W5        30.20R
BENTONVILLE    CLEAR     37  29  72 NW3       30.25R
ROGERS         CLEAR     36  29  75 NW3       30.23S
SILOAM SPGS    CLEAR     35  30  82 CALM      30.25R
HIGHFILL       PTCLDY    36  29  75 NW3       30.24R
$$

ARZ004-005-016-191000-
NORTH CENTRAL ARKANSAS

CITY           SKY/WX    TMP DP  RH WIND       PRES   REMARKS
BATESVILLE     CLEAR     43  27  53 NW5       30.18R
FLIPPIN        CLEAR     41  28  60 NW5       30.21R
MTN HOME       CLEAR     39  30  70 VRB3      30.18R
$$

ARZ040-041-191000-
WEST CENTRAL ARKANSAS

CITY           SKY/WX    TMP DP  RH WIND       PRES   REMARKS
MENA           PTCLDY    43  32  65 W5        30.24R
MOUNT IDA      CLEAR     35  32  88 CALM      30.19S
$$

ARZ009-017-025-026-028-191000-
NORTHEAST ARKANSAS

CITY           SKY/WX    TMP DP  RH WIND       PRES   REMARKS
JONESBORO      CLEAR     42  33  70 NW6       30.15R
NEWPORT        CLEAR     42  26  53 NW9       30.18R
WALNUT RIDGE     N/A     38  31  76 NW8       30.16R
BLYTHEVILLE    CLEAR     40  35  83 NW12      30.13R
$$

ARZ022-023-033-042-044-191000-
CENTRAL ARKANSAS

CITY           SKY/WX    TMP DP  RH WIND       PRES   REMARKS
LITTLE ROCK    PTCLDY    38  34  85 W6        30.22R
N LITTLE ROCK    N/A     42  34  73 CALM      30.22R
JACKSONVILLE   PTCLDY    34  30  87 W5        30.20R WCI  29
SEARCY         PTCLDY    37  32  82 W3        30.20R
HOT SPRINGS    CLEAR     38  34  85 CALM      30.23R
RUSSELLVILLE   CLEAR     34  33  96 CALM      30.22R
CLINTON        FAIR      45  27  49 CALM      30.20R
$$

ARZ036-191000-
EAST ARKANSAS

CITY           SKY/WX    TMP DP  RH WIND       PRES   REMARKS
WEST MEMPHIS   PTCLDY    42  35  76 NW5       30.14R
$$

ARZ050-053-066-070-073-191000-
SOUTHWEST ARKANSAS

CITY           SKY/WX    TMP DP  RH WIND       PRES   REMARKS
ARKADELPHIA    FAIR      35  33  92 CALM      30.25R
CAMDEN         CLEAR     36  32  87 CALM      30.23S
TEXARKANA      CLEAR     43  34  70 NW8       30.25S
EL DORADO      CLEAR     40  35  83 NW5       30.23S
DE QUEEN       PTCLDY    32  32 100 CALM      30.25S FOG
$$

ARZ056-057-069-191000-
SOUTHEAST ARKANSAS

CITY           SKY/WX    TMP DP  RH WIND       PRES   REMARKS
PINE BLUFF     CLEAR     42  32  67 NW6       30.22R
STUTTGART      PTCLDY    40  35  83 W9        30.21R
MONTICELLO     CLEAR     44  32  62 NW5       30.20R

$$






USA.gov is the U.S. government's official web portal to all federal, state and local government web resources and services.